Rockland, ME

5:41 AM EDT on May 23, 2018 (GMT -0400)
Knox County Regional

Weather History for KRKD - May, 2013

Change the Weather History Date:

Saturday, May 18, 2013

  Actual Average Record
Temperature  
Mean Temperature 45 °F -  
Max Temperature 53 °F 56 °F 86 °F (2017)
Min Temperature 37 °F 40 °F 33 °F (2001)
Degree Days  
Heating Degree Days 20    
Moisture  
Dew Point 40 °F    
Average Humidity 80    
Maximum Humidity 93    
Minimum Humidity 54    
Precipitation  
Precipitation 0.00 in - - ()
Sea Level Pressure  
Sea Level Pressure 30.29 in    
Wind  
Wind Speed 4 mph (SE)    
Max Wind Speed 13 mph    
Max Gust Speed 17 mph    
Visibility 10 miles    
Events      
Averages and records for this station are not official NWS values.
T = Trace of Precipitation, MM = Missing Value Source: NWS Daily Summary

Daily Weather History Graph

Daily Weather History Graph

Search for Another Location

Airport or City:

Astronomy

May. 18, 2013 Rise Set
Actual Time 5:06 AM EDT 7:59 PM EDT
Civil Twilight 4:33 AM EDT 8:33 PM EDT
Nautical Twilight 3:50 AM EDT 9:16 PM EDT
Astronomical Twilight 2:59 AM EDT 10:07 PM EDT
Moon 12:45 PM EDT (5/18) 1:12 AM EDT (5/18)
Length of Visible Light 16h 00m
Length of Day
14h 52m
First Quarter, 55% of the Moon is Illuminated
May 18
First Quarter
May 25
Full
May 31
Last Quarter
Jun 8
New
Jun 16
First Quarter

Hourly Weather History & Observations

Time (EDT) Temp. Windchill Dew Point Humidity Pressure Visibility Wind Dir Wind Speed Gust Speed Precip Events Conditions
12:15 AM 42.8 °F - 37.4 °F 81% 30.19 in 10.0 mi Calm Calm - N/A   Clear
12:35 AM 41.0 °F - 37.4 °F 87% 30.20 in 10.0 mi Calm Calm - N/A   Clear
12:55 AM 41.0 °F 39.0 °F 37.4 °F 87% 30.20 in 10.0 mi WNW 3.5 mph - N/A   Partly Cloudy
1:15 AM 39.2 °F - 37.4 °F 93% 30.20 in 10.0 mi Calm Calm - N/A   Mostly Cloudy
1:35 AM 39.2 °F 37.0 °F 37.4 °F 93% 30.20 in 10.0 mi WNW 3.5 mph - N/A   Partly Cloudy
1:55 AM 37.4 °F - 35.6 °F 93% 30.21 in 10.0 mi Calm Calm - N/A   Scattered Clouds
2:15 AM 39.2 °F - 37.4 °F 93% 30.21 in 10.0 mi Calm Calm - N/A   Mostly Cloudy
2:35 AM 39.2 °F - 37.4 °F 93% 30.21 in 10.0 mi Calm Calm - N/A   Scattered Clouds
2:55 AM 39.2 °F - 37.4 °F 93% 30.21 in 10.0 mi Calm Calm - N/A   Partly Cloudy
3:15 AM 39.2 °F - 37.4 °F 93% 30.21 in 10.0 mi Calm Calm - N/A   Partly Cloudy
3:35 AM 39.2 °F 37.0 °F 37.4 °F 93% 30.21 in 10.0 mi West 3.5 mph - N/A   Mostly Cloudy
3:55 AM 39.2 °F 37.0 °F 37.4 °F 93% 30.22 in 10.0 mi West 3.5 mph - N/A   Scattered Clouds
4:15 AM 37.4 °F - 35.6 °F 93% 30.22 in 10.0 mi Calm Calm - N/A   Clear
4:35 AM 37.4 °F - 35.6 °F 93% 30.23 in 10.0 mi Calm Calm - N/A   Clear
4:55 AM 37.4 °F - 35.6 °F 93% 30.24 in 10.0 mi Calm Calm - N/A   Clear
5:15 AM 37.4 °F - 35.6 °F 93% 30.24 in 10.0 mi Calm Calm - N/A   Clear
5:35 AM 37.4 °F - 35.6 °F 93% 30.25 in 10.0 mi Calm Calm - N/A   Clear
5:55 AM 37.4 °F - 35.6 °F 93% 30.26 in 10.0 mi Calm Calm - N/A   Partly Cloudy
6:15 AM 39.2 °F - 37.4 °F 93% 30.27 in 10.0 mi Calm Calm - N/A   Partly Cloudy
6:35 AM 44.6 °F 41.4 °F 42.8 °F 93% 30.28 in 10.0 mi NE 5.8 mph - N/A   Partly Cloudy
6:55 AM 48.2 °F - 42.8 °F 82% 30.29 in 10.0 mi NE 6.9 mph - N/A   Partly Cloudy
7:15 AM 48.2 °F - 42.8 °F 82% 30.29 in 10.0 mi NE 8.1 mph - N/A   Mostly Cloudy
7:35 AM 48.2 °F - 39.2 °F 71% 30.30 in 10.0 mi NE 6.9 mph - N/A   Scattered Clouds
7:55 AM 50.0 °F - 39.2 °F 66% 30.30 in 10.0 mi NE 9.2 mph - N/A   Partly Cloudy
8:15 AM 50.0 °F - 39.2 °F 66% 30.31 in 10.0 mi NE 12.7 mph - N/A   Scattered Clouds
8:35 AM 51.8 °F - 39.2 °F 62% 30.32 in 10.0 mi ENE 12.7 mph - N/A   Partly Cloudy
8:55 AM 51.8 °F - 37.4 °F 58% 30.33 in 10.0 mi NE 10.4 mph 17.3 mph N/A   Clear
9:15 AM 51.8 °F - 39.2 °F 62% 30.32 in 10.0 mi NE 8.1 mph - N/A   Clear
9:35 AM 53.6 °F - 39.2 °F 58% 30.32 in 10.0 mi NE 6.9 mph - N/A   Clear
9:55 AM 53.6 °F - 37.4 °F 54% 30.33 in 10.0 mi East 8.1 mph - N/A   Clear
10:15 AM 51.8 °F - 39.2 °F 62% 30.33 in 10.0 mi ENE 8.1 mph - N/A   Clear
10:35 AM 51.8 °F - 39.2 °F 62% 30.33 in 10.0 mi ESE 11.5 mph - N/A   Clear
10:55 AM 51.8 °F - 42.8 °F 71% 30.34 in 10.0 mi East 9.2 mph - N/A   Clear
11:15 AM 50.0 °F - 42.8 °F 76% 30.33 in 10.0 mi ESE 10.4 mph - N/A   Clear
11:35 AM 51.8 °F - 42.8 °F 71% 30.33 in 10.0 mi East 8.1 mph - N/A   Clear
11:55 AM 51.8 °F - 42.8 °F 71% 30.33 in 10.0 mi East 8.1 mph - N/A   Clear
12:15 PM 51.8 °F - 42.8 °F 71% 30.32 in 10.0 mi East 10.4 mph - N/A   Clear
12:35 PM 51.8 °F - 42.8 °F 71% 30.32 in 10.0 mi SE 10.4 mph - N/A   Clear
12:55 PM 51.8 °F - 42.8 °F 71% 30.32 in 10.0 mi SE 10.4 mph - N/A   Clear
1:15 PM 50.0 °F - 42.8 °F 76% 30.31 in 10.0 mi ESE 11.5 mph - N/A   Clear
1:35 PM 51.8 °F - 41.0 °F 67% 30.31 in 10.0 mi SE 10.4 mph - N/A   Clear
1:55 PM 51.8 °F - 41.0 °F 67% 30.31 in 10.0 mi SE 11.5 mph - N/A   Scattered Clouds
2:16 PM 51.8 °F - 41.0 °F 67% 30.31 in 10.0 mi SE 12.7 mph - N/A   Partly Cloudy
2:35 PM 50.0 °F - 41.0 °F 71% 30.31 in 10.0 mi SSE 9.2 mph - N/A   Clear
3:15 PM 48.2 °F - 42.8 °F 82% 30.31 in 10.0 mi SE 10.4 mph - N/A   Scattered Clouds
3:35 PM 50.0 °F - 41.0 °F 71% 30.31 in 10.0 mi SSE 11.5 mph - N/A   Partly Cloudy
3:55 PM 50.0 °F - 41.0 °F 71% 30.31 in 10.0 mi South 9.2 mph - N/A   Clear
4:15 PM 50.0 °F - 41.0 °F 71% 30.31 in 10.0 mi SSE 11.5 mph - N/A   Partly Cloudy
4:35 PM 48.2 °F - 41.0 °F 76% 30.31 in 10.0 mi South 9.2 mph - N/A   Clear
4:55 PM 50.0 °F - 42.8 °F 76% 30.31 in 10.0 mi SSW 9.2 mph - N/A   Clear
5:15 PM 50.0 °F - 42.8 °F 76% 30.31 in 10.0 mi South 9.2 mph - N/A   Clear
5:35 PM 50.0 °F - 42.8 °F 76% 30.31 in 10.0 mi SSW 8.1 mph - N/A   Clear
5:56 PM 50.0 °F - 42.8 °F 76% 30.32 in 10.0 mi South 6.9 mph - N/A   Clear
6:15 PM 48.2 °F - 42.8 °F 82% 30.32 in 10.0 mi SE 8.1 mph - N/A   Scattered Clouds
6:35 PM 48.2 °F - 42.8 °F 82% 30.32 in 10.0 mi South 8.1 mph - N/A   Mostly Cloudy
6:55 PM 48.2 °F - 42.8 °F 82% 30.33 in 10.0 mi SE 8.1 mph - N/A   Clear
7:15 PM 48.2 °F - 42.8 °F 82% 30.34 in 10.0 mi South 6.9 mph - N/A   Mostly Cloudy
7:55 PM 48.2 °F - 42.8 °F 82% 30.34 in 10.0 mi SE 4.6 mph - N/A   Mostly Cloudy
8:15 PM 48.2 °F - 42.8 °F 82% 30.34 in 10.0 mi SSE 4.6 mph - N/A   Mostly Cloudy
8:35 PM 48.2 °F - 42.8 °F 82% 30.35 in 10.0 mi SSE 4.6 mph - N/A   Overcast
8:55 PM 48.2 °F - 42.8 °F 82% 30.35 in 10.0 mi SE 5.8 mph - N/A   Mostly Cloudy
9:15 PM 46.4 °F 44.3 °F 42.8 °F 87% 30.35 in 10.0 mi South 4.6 mph - N/A   Partly Cloudy
9:35 PM 46.4 °F 43.5 °F 42.8 °F 87% 30.35 in 10.0 mi SSE 5.8 mph - N/A   Partly Cloudy
9:55 PM 46.4 °F 45.2 °F 42.8 °F 87% 30.35 in 10.0 mi South 3.5 mph - N/A   Scattered Clouds
10:15 PM 46.4 °F 44.3 °F 42.8 °F 87% 30.35 in 10.0 mi SSE 4.6 mph - N/A   Scattered Clouds
10:35 PM 46.4 °F 43.5 °F 42.8 °F 87% 30.35 in 10.0 mi SE 5.8 mph - N/A   Scattered Clouds
10:55 PM 46.4 °F 42.9 °F 42.8 °F 87% 30.34 in 10.0 mi SSE 6.9 mph - N/A   Mostly Cloudy
11:15 PM 46.4 °F 44.3 °F 42.8 °F 87% 30.34 in 10.0 mi SSE 4.6 mph - N/A   Overcast
11:35 PM 46.4 °F 43.5 °F 42.8 °F 87% 30.34 in 10.0 mi SE 5.8 mph - N/A   Overcast